K3MV-13 Weather Reports


time (UTC)temp
C
wind
direction
speed
KPH
gust
KPH
rain 1hr
cm
rain 24hr
cm
rain mn
cm
humidity
%
barometer
mb
20260503010208 3 278 4.8 4.8 0.00 0.00 0.00 75 1015.1
20260503005705 3 334 4.8 6.4 0.00 0.00 0.00 74 1014.7
20260503005202 3 337 3.2 3.2 0.00 0.00 0.00 75 1014.8
20260503004658 3 314 4.8 4.8 0.00 0.00 0.00 75 1014.7
20260503004157 3 315 3.2 4.8 0.00 0.00 0.00 76 1014.7
20260503003654 3 323 6.4 6.4 0.00 0.00 0.00 76 1014.6
20260503003151 3 359 1.6 1.6 0.00 0.00 0.00 75 1014.4
20260503002647 3 343 6.4 9.7 0.00 0.00 0.00 75 1014.6
20260503002144 3 333 6.4 6.4 0.00 0.00 0.00 75 1014.4
20260503001640 3 2 3.2 3.2 0.00 0.00 0.00 74 1014.4
20260503001137 3 12 3.2 3.2 0.00 0.00 0.00 75 1014.3
20260503000635 3 334 4.8 4.8 0.00 0.00 0.00 74 1014.3
20260503000132 3 327 4.8 6.4 0.00 0.00 0.00 73 1014.4
20260502235628 3 316 6.4 11.3 0.00 0.00 0.00 73 1014.3
20260502235127 3 328 4.8 4.8 0.00 0.00 0.00 72 1014.4
20260502234622 3 330 1.6 1.6 0.00 0.00 0.00 71 1014.3
20260502234120 3 304 6.4 11.3 0.00 0.00 0.00 71 1014.3
20260502233615 3 334 4.8 6.4 0.00 0.00 0.00 70 1014.1
20260502233113 4 346 11.3 14.5 0.00 0.00 0.00 69 1014.1
20260502232608 4 335 6.4 9.7 0.00 0.00 0.00 69 1014.1
20260502232106 4 345 6.4 11.3 0.00 0.00 0.00 68 1014.1
20260502231603 5 4 8.0 11.3 0.00 0.00 0.00 67 1014.2
20260502231101 5 325 6.4 9.7 0.00 0.00 0.00 67 1013.9
20260502230559 5 34 9.7 14.5 0.00 0.00 0.00 66 1014.0
20260502230057 5 333 8.0 11.3 0.00 0.00 0.00 65 1013.9
20260502225552 5 313 11.3 12.9 0.00 0.00 0.00 65 1013.7
20260502225050 5 341 9.7 11.3 0.00 0.00 0.00 64 1013.8
20260502224545 5 309 4.8 4.8 0.00 0.00 0.00 65 1013.8
20260502224043 5 342 9.7 12.9 0.00 0.00 0.00 64 1013.8
20260502223540 5 32 3.2 4.8 0.00 0.00 0.00 67 1013.7
20260502223039 5 284 4.8 4.8 0.00 0.00 0.00 66 1013.8
20260502222535 5 316 6.4 9.7 0.00 0.00 0.00 65 1013.8
20260502222032 5 321 6.4 9.7 0.00 0.00 0.00 65 1013.6
20260502221527 6 342 8.0 11.3 0.00 0.00 0.00 64 1013.7
20260502221025 6 328 3.2 4.8 0.00 0.00 0.00 65 1013.6
20260502220520 6 319 4.8 4.8 0.00 0.00 0.00 65 1013.7
20260502220018 6 323 3.2 3.2 0.00 0.00 0.00 64 1013.7
20260502215515 6 43 3.2 4.8 0.00 0.00 0.00 62 1013.7
20260502215011 6 334 11.3 14.5 0.00 0.00 0.00 62 1013.4
20260502214509 6 331 8.0 12.9 0.00 0.00 0.00 62 1013.5
20260502214006 6 28 3.2 4.8 0.00 0.00 0.00 62 1013.5
20260502213502 6 337 9.7 11.3 0.00 0.00 0.00 61 1013.4
20260502213001 6 9 1.6 3.2 0.00 0.00 0.00 64 1013.5
20260502212459 6 289 1.6 1.6 0.00 0.00 0.00 64 1013.3
20260502211956 6 324 6.4 11.3 0.00 0.00 0.00 62 1013.3
20260502211452 6 286 8.0 11.3 0.00 0.00 0.00 60 1013.4
20260502210950 6 319 3.2 4.8 0.00 0.00 0.00 60 1013.3
20260502210446 6 21 6.4 9.7 0.00 0.00 0.00 60 1013.2
20260502205943 7 331 6.4 6.4 0.00 0.00 0.00 59 1013.4
20260502205439 7 311 6.4 9.7 0.00 0.00 0.00 60 1013.4
20260502204937 7 320 6.4 11.3 0.00 0.00 0.00 60 1013.4
20260502204433 7 237 3.2 4.8 0.00 0.00 0.00 58 1013.1
20260502203932 7 19 6.4 12.9 0.00 0.00 0.00 58 1013.0
20260502203428 7 357 6.4 9.7 0.00 0.00 0.00 57 1013.2
20260502202924 7 265 6.4 9.7 0.00 0.00 0.00 56 1013.1
20260502202421 7 324 9.7 12.9 0.00 0.00 0.00 55 1013.1
20260502201920 7 321 8.0 11.3 0.00 0.00 0.00 55 1013.0
20260502201415 8 348 4.8 6.4 0.00 0.00 0.00 55 1013.1
20260502200912 7 334 8.0 9.7 0.00 0.00 0.00 57 1013.3
20260502200407 7 327 8.0 9.7 0.00 0.00 0.00 57 1013.3
20260502195906 7 0 6.4 9.7 0.00 0.00 0.00 58 1013.5
20260502195403 7 356 6.4 11.3 0.00 0.00 0.00 60 1013.5
20260502194859 7 346 4.8 11.3 0.00 0.00 0.00 58 1013.3
20260502194356 7 320 8.0 12.9 0.00 0.00 0.00 58 1013.5
20260502193852 7 268 4.8 9.7 0.00 0.00 0.00 59 1013.6
20260502193349 7 329 4.8 9.7 0.00 0.00 0.00 59 1013.4
20260502192844 6 337 1.6 3.2 0.00 0.00 0.00 61 1013.5
20260502192342 7 7 4.8 4.8 0.00 0.00 0.00 57 1013.6
20260502191839 7 294 1.6 1.6 0.00 0.00 0.00 56 1013.6
20260502191337 7 262 3.2 3.2 0.00 0.00 0.00 56 1013.8
20260502190833 7 261 3.2 3.2 0.00 0.00 0.00 57 1013.6
20260502190331 7 273 1.6 4.8 0.00 0.00 0.00 59 1013.7
20260502185827 7 256 3.2 4.8 0.00 0.00 0.00 55 1013.9
20260502185322 8 332 8.0 11.3 0.00 0.00 0.00 58 1013.9
20260502184820 7 306 1.6 3.2 0.00 0.00 0.00 59 1013.9
20260502184315 7 259 3.2 4.8 0.00 0.00 0.00 58 1013.9
20260502183812 7 319 8.0 12.9 0.00 0.00 0.00 60 1014.0
20260502183308 6 335 8.0 11.3 0.00 0.00 0.00 61 1013.9
20260502182803 6 323 3.2 3.2 0.00 0.00 0.00 61 1013.9
20260502182259 7 323 6.4 9.7 0.00 0.00 0.00 60 1014.1
20260502181756 7 358 6.4 9.7 0.00 0.00 0.00 58 1014.1
20260502181255 7 263 4.8 6.4 0.00 0.00 0.00 54 1014.0
20260502180752 8 290 3.2 3.2 0.00 0.00 0.00 51 1013.9
20260502180249 7 327 6.4 9.7 0.00 0.00 0.00 55 1014.3
20260502170214 6 280 1.6 3.2 0.00 0.00 0.00 61 1014.1
20260502164201 7 288 1.6 1.6 0.00 0.00 0.00 58 1014.2
20260502163656 7 267 3.2 3.2 0.00 0.00 0.00 54 1014.2
20260502163153 7 325 3.2 4.8 0.00 0.00 0.00 57 1014.2
20260502162650 6 292 3.2 3.2 0.00 0.00 0.00 61 1014.2
20260502162147 6 259 3.2 4.8 0.00 0.00 0.00 60 1014.2
20260502161644 6 320 8.0 12.9 0.00 0.00 0.00 60 1014.3
20260502161141 6 272 3.2 3.2 0.00 0.00 0.00 59 1014.2
20260502160639 7 264 3.2 3.2 0.00 0.00 0.00 55 1014.4
20260502160137 7 274 4.8 6.4 0.00 0.00 0.00 55 1014.3
20260502152051 6 253 3.2 4.8 0.00 0.00 0.00 60 1014.4
20260502151548 6 295 3.2 3.2 0.00 0.00 0.00 63 1014.3
20260502151046 7 273 4.8 4.8 0.00 0.00 0.00 61 1014.3
20260502150543 7 264 1.6 3.2 0.00 0.00 0.00 62 1014.4
20260502130428 5 289 1.6 3.2 0.00 0.00 0.00 76 1014.3
20260502123410 3 322 1.6 1.6 0.00 0.00 0.00 83 1014.7
20260502122908 3 350 1.6 3.2 0.00 0.00 0.00 83 1014.9
20260502122404 3 10 1.6 1.6 0.00 0.00 0.00 83 1014.8
20260502121902 2 336 1.6 1.6 0.00 0.00 0.00 84 1014.9
20260502121359 2 326 0.0 1.6 0.00 0.00 0.00 84 1014.8
20260502120857 2 321 3.2 3.2 0.00 0.00 0.00 84 1014.8
20260502120352 2 338 3.2 3.2 0.00 0.00 0.00 84 1015.1
20260502115850 2 317 0.0 0.0 0.00 0.00 0.00 85 1014.9
20260502115347 2 274 0.0 1.6 0.00 0.00 0.00 85 1014.8
20260502114843 2 321 0.0 1.6 0.00 0.00 0.00 85 1014.9
20260502114340 2 312 0.0 1.6 0.00 0.00 0.00 86 1015.0
20260502113837 2 258 0.0 0.0 0.00 0.00 0.00 86 1015.2
20260502113335 2 270 0.0 1.6 0.00 0.00 0.00 86 1015.1
20260502112833 2 270 1.6 1.6 0.00 0.00 0.00 87 1015.2
20260502112330 2 268 0.0 0.0 0.00 0.00 0.00 88 1015.1
20260502111827 2 268 0.0 0.0 0.00 0.00 0.00 89 1015.3
20260502111325 2 268 0.0 0.0 0.00 0.00 0.00 89 1015.1
20260502110823 2 276 0.0 0.0 0.00 0.00 0.00 89 1015.1
20260502110320 2 280 0.0 1.6 0.00 0.00 0.00 90 1015.0
20260502105817 2 280 0.0 0.0 0.00 0.00 0.00 90 1014.8
20260502105314 2 276 0.0 1.6 0.00 0.00 0.00 90 1014.9
20260502104812 2 277 0.0 0.0 0.00 0.00 0.00 90 1014.8
20260502104309 2 277 0.0 0.0 0.00 0.00 0.00 91 1014.7
20260502103806 2 276 0.0 0.0 0.00 0.00 0.00 91 1014.8
20260502103303 2 276 0.0 0.0 0.00 0.00 0.00 91 1014.7
20260502102801 1 276 0.0 0.0 0.00 0.00 0.00 91 1014.8
20260502102257 1 276 0.0 0.0 0.00 0.00 0.00 91 1014.8
20260502101755 1 276 0.0 0.0 0.00 0.00 0.00 90 1014.6
20260502101253 2 276 0.0 0.0 0.00 0.00 0.00 90 1014.4
20260502100751 2 277 0.0 0.0 0.00 0.00 0.00 90 1014.8
20260502100249 2 278 0.0 0.0 0.00 0.00 0.00 90 1014.6
20260502091224 2 320 0.0 0.0 0.00 0.15 0.15 90 1014.6
20260502090721 1 321 0.0 0.0 0.00 0.15 0.15 90 1014.8
20260502090217 1 321 0.0 0.0 0.00 0.15 0.15 90 1014.7
20260502071113 2 307 0.0 0.0 0.00 0.15 0.15 86 1014.9
20260502070611 2 261 0.0 1.6 0.00 0.15 0.15 86 1014.9
20260502070109 2 329 1.6 3.2 0.00 0.15 0.15 87 1014.8
20260502065607 2 337 1.6 3.2 0.00 0.15 0.15 87 1014.9
20260502065104 2 336 3.2 4.8 0.00 0.15 0.15 87 1014.7
20260502064602 2 329 3.2 3.2 0.00 0.15 0.15 87 1014.7
20260502064059 2 332 1.6 1.6 0.00 0.15 0.15 87 1014.7
20260502063557 2 15 0.0 1.6 0.00 0.15 0.15 88 1014.7
20260502063054 2 341 1.6 1.6 0.00 0.15 0.15 88 1014.7
20260502062551 2 329 1.6 3.2 0.00 0.15 0.15 88 1014.7
20260502062049 2 319 0.0 1.6 0.00 0.15 0.15 87 1014.4
20260502061547 2 294 0.0 1.6 0.00 0.15 0.15 87 1014.4
20260502061044 2 0 3.2 3.2 0.00 0.15 0.15 87 1014.4
20260502060539 2 283 0.0 1.6 0.00 0.15 0.15 87 1014.8
20260502060036 2 330 1.6 1.6 0.00 0.15 0.15 87 1014.8
20260502055534 2 327 1.6 1.6 0.00 0.15 0.15 87 1014.8
20260502055032 2 320 1.6 3.2 0.00 0.15 0.15 88 1014.9
20260502054531 2 306 0.0 0.0 0.00 0.15 0.15 88 1014.9
20260502054027 2 328 0.0 1.6 0.00 0.15 0.15 89 1015.0
20260502053524 2 330 1.6 3.2 0.00 0.15 0.15 88 1014.8
20260502053022 2 326 3.2 3.2 0.00 0.15 0.15 88 1014.9
20260502052520 2 304 1.6 3.2 0.00 0.15 0.15 88 1014.7
20260502052018 2 333 3.2 3.2 0.00 0.15 0.15 88 1014.7
20260502051516 2 2 1.6 3.2 0.00 0.15 0.15 89 1014.7
20260502051013 3 324 6.4 6.4 0.00 0.15 0.15 89 1014.7
20260502050509 3 356 3.2 3.2 0.00 0.15 0.15 89 1014.8
20260502050007 3 27 4.8 4.8 0.00 0.15 0.15 89 1014.4
20260502045503 3 324 4.8 6.4 0.00 0.15 0.15 89 1014.4
20260502045000 3 349 4.8 9.7 0.00 0.15 0.15 89 1014.3
20260502044456 3 340 3.2 4.8 0.00 0.15 0.15 89 1014.4
20260502043953 3 304 9.7 12.9 0.00 0.15 0.15 89 1014.4
20260502043451 3 352 14.5 14.5 0.00 0.15 0.15 90 1014.3
20260502042950 3 340 6.4 6.4 0.00 0.15 0.15 90 1014.3
20260502042447 3 353 3.2 4.8 0.00 0.15 0.15 90 1014.3
20260502041944 3 333 6.4 9.7 0.00 0.15 0.15 90 1014.4
20260502041442 3 287 4.8 4.8 0.00 0.15 0.15 90 1014.2
20260502040939 3 257 4.8 4.8 0.00 0.15 0.15 90 1014.4
20260502040435 3 275 1.6 3.2 0.00 0.15 0.15 90 1014.4
20260502035932 3 303 0.0 1.6 0.00 0.15 0.15 90 1014.7
20260502035428 3 300 3.2 4.8 0.00 0.15 0.15 90 1014.3
20260502034926 3 292 1.6 1.6 0.00 0.15 0.15 91 1014.2
20260502034425 4 227 1.6 1.6 0.00 0.15 0.15 91 1014.2
20260502033923 4 323 3.2 4.8 0.00 0.15 0.15 91 1014.2
20260502033420 4 5 1.6 3.2 0.00 0.15 0.15 91 1014.1
20260502032916 4 316 0.0 1.6 0.00 0.15 0.15 91 1013.8
20260502032413 4 260 1.6 1.6 0.00 0.15 0.15 91 1013.9
20260502031910 4 242 1.6 1.6 0.00 0.15 0.15 91 1013.8
20260502031409 5 277 4.8 4.8 0.00 0.15 0.15 91 1013.9
20260502030906 5 346 1.6 1.6 0.00 0.15 0.15 91 1013.7
20260502030404 5 358 3.2 4.8 0.00 0.15 0.15 91 1013.8
20260502025902 5 289 1.6 1.6 0.00 0.15 0.15 91 1013.8
20260502025359 5 269 3.2 3.2 0.00 0.15 0.15 91 1013.7
20260502024856 5 270 1.6 3.2 0.00 0.15 0.15 91 1013.7
20260502024354 5 274 1.6 1.6 0.00 0.15 0.15 91 1013.9
20260502023852 5 249 0.0 1.6 0.00 0.15 0.15 91 1013.9
20260502023349 5 269 0.0 0.0 0.00 0.15 0.15 91 1014.1
20260502022847 5 309 0.0 0.0 0.00 0.15 0.15 90 1013.9
20260502022343 5 264 3.2 4.8 0.00 0.15 0.15 91 1014.2
20260502021840 5 221 1.6 3.2 0.00 0.15 0.15 91 1013.9
20260502021337 5 291 3.2 4.8 0.00 0.15 0.15 91 1013.9
20260502020835 5 293 3.2 4.8 0.00 0.15 0.15 92 1014.0
20260502020332 5 270 1.6 3.2 0.00 0.15 0.15 92 1013.7
20260502015829 5 284 1.6 1.6 0.00 0.15 0.15 92 1013.7
20260502015326 5 174 0.0 1.6 0.18 0.15 0.15 92 1013.6
20260502014823 5 314 0.0 1.6 0.18 0.15 0.15 92 1013.6
20260502014320 5 146 0.0 1.6 0.00 0.13 0.13 91 1013.3
20260502013816 5 265 3.2 3.2 0.00 0.13 0.13 91 1013.4
20260502013312 5 288 3.2 6.4 0.13 0.13 0.13 91 1013.3
20260502012809 6 259 4.8 4.8 0.30 0.13 0.13 91 1013.4
20260502012307 6 323 1.6 4.8 0.18 0.10 0.10 92 1012.9
20260502011804 6 278 6.4 6.4 0.00 0.08 0.08 92 1012.7
20260502011300 6 302 6.4 6.4 0.00 0.08 0.08 92 1012.4
20260502010757 6 263 0.0 0.0 0.00 0.08 0.08 92 1012.4
20260502010253 6 267 0.0 0.0 0.00 0.08 0.08 92 1012.3